Location: Rioux
(40.7500°S, 175.7500°E)
Time: 09:21:14
(UTC+00:00)

Cosmos 1452 Rocket - Pass Details

Date: 12 June 2024
Orbit: 765 x 772 km, 74.1° (Epoch: 20 July)

Event Time Altitude Azimuth Distance (km) Brightness Sun altitude
Exits shadow 17:39:50 13° 189° (S) 2,159 5.6 -21.7°
Maximum altitude 17:44:33 54° 113° (ESE) 942 4.2 -20.8°
Drops below altitude 10° 17:49:42 10° 35° (NE) 2,315 6.7 -19.9°
Sets 17:52:07 0° 30° (NNE) 3,232 7.4 -19.4°
